SAS604 ENTC-EFOU

Flight info

Callsign SAS604
Flight time 0h 50m
Altitude 37000
Route MOKAX DCT BURJA
Aircraft B738/M-SDE2E3FGHIRWXY/LB1

Departure

Time 2026-05-09 03:15
Airport Tromsø Airport (ENTC)

Arrival

Time 2026-05-09 04:05
Airport Oulu Airport (EFOU)
Time Latitude Longitude Altitude Speed Heading
2026-05-09 02:50 69.67833 18.90835 33 ft 0 kts 282°
2026-05-09 03:07 69.67832 18.90856 33 ft 4 kts 281°
2026-05-09 03:08 69.67827 18.90933 32 ft 4 kts 278°
2026-05-09 03:08 69.67824 18.91010 30 ft 4 kts 273°
2026-05-09 03:08 69.67824 18.91087 32 ft 4 kts 263°
2026-05-09 03:08 69.67831 18.91156 31 ft 4 kts 224°
2026-05-09 03:09 69.67839 18.91174 32 ft 0 kts 193°
2026-05-09 03:11 69.67796 18.91146 34 ft 12 kts 193°
2026-05-09 03:12 69.67685 18.91074 34 ft 10 kts 192°
2026-05-09 03:12 69.67636 18.91156 32 ft 8 kts 111°
2026-05-09 03:12 69.67619 18.91290 36 ft 7 kts 116°
2026-05-09 03:12 69.67568 18.91340 40 ft 13 kts 184°
2026-05-09 03:13 69.67267 18.91236 33 ft 12 kts 181°
2026-05-09 03:13 69.67258 18.91169 32 ft 6 kts 337°
2026-05-09 03:13 69.67301 18.91192 32 ft 6 kts 36°
2026-05-09 03:14 69.67325 18.91221 32 ft 1 kts 11°
2026-05-09 03:14 69.67544 18.91360 40 ft 71 kts 13°
2026-05-09 03:14 69.68276 18.91859 31 ft 142 kts 14°
2026-05-09 03:15 69.69315 18.92600 589 ft 153 kts 15°
2026-05-09 03:15 69.70393 18.93294 1367 ft 166 kts 12°
2026-05-09 03:15 69.71588 18.93919 2008 ft 187 kts 12°
2026-05-09 03:15 69.72917 18.95189 2382 ft 209 kts 28°
2026-05-09 03:16 69.74273 18.97032 2848 ft 226 kts 28°
2026-05-09 03:16 69.75751 18.99052 3283 ft 242 kts 27°
2026-05-09 03:16 69.77048 19.02098 4024 ft 241 kts 54°
2026-05-09 03:16 69.77810 19.06361 4806 ft 237 kts 78°
2026-05-09 03:17 69.77888 19.11089 5495 ft 242 kts 101°
2026-05-09 03:17 69.77552 19.16138 5834 ft 268 kts 103°
2026-05-09 03:17 69.77037 19.21293 6755 ft 267 kts 115°
2026-05-09 03:17 69.76019 19.25915 7302 ft 280 kts 137°
2026-05-09 03:18 69.74392 19.28865 8216 ft 275 kts 164°
2026-05-09 03:18 69.72518 19.29249 9156 ft 271 kts 192°
2026-05-09 03:18 69.70662 19.28083 10004 ft 275 kts 196°
2026-05-09 03:18 69.68779 19.26726 10633 ft 287 kts 197°
2026-05-09 03:19 69.66755 19.25251 10839 ft 313 kts 197°
2026-05-09 03:19 69.64562 19.23692 11025 ft 337 kts 196°
2026-05-09 03:19 69.62229 19.22085 11443 ft 350 kts 195°
2026-05-09 03:19 69.59837 19.20464 12145 ft 356 kts 196°
2026-05-09 03:20 69.57402 19.18923 12909 ft 361 kts 191°
2026-05-09 03:20 69.54863 19.19336 13651 ft 374 kts 167°
2026-05-09 03:20 69.52460 19.22334 14417 ft 382 kts 153°
2026-05-09 03:20 69.50127 19.26065 15135 ft 387 kts 153°
2026-05-09 03:21 69.47776 19.29882 15876 ft 391 kts 153°
2026-05-09 03:21 69.45415 19.33706 16799 ft 390 kts 153°
2026-05-09 03:21 69.43046 19.37508 17608 ft 393 kts 153°
2026-05-09 03:21 69.40674 19.41277 18248 ft 399 kts 153°
2026-05-09 03:22 69.38233 19.45124 18858 ft 404 kts 153°
2026-05-09 03:22 69.35759 19.48997 19485 ft 408 kts 154°
2026-05-09 03:22 69.33258 19.52899 20090 ft 412 kts 154°
2026-05-09 03:22 69.30734 19.56826 20685 ft 417 kts 154°
2026-05-09 03:23 69.28178 19.60790 21278 ft 421 kts 154°
2026-05-09 03:23 69.25595 19.64786 21833 ft 425 kts 154°
2026-05-09 03:23 69.22982 19.68819 22405 ft 429 kts 154°
2026-05-09 03:23 69.20350 19.72869 22969 ft 433 kts 154°
2026-05-09 03:24 69.17693 19.76948 23494 ft 438 kts 154°
2026-05-09 03:24 69.15005 19.81064 23973 ft 442 kts 155°
2026-05-09 03:24 69.12297 19.85201 24441 ft 445 kts 155°
2026-05-09 03:24 69.09562 19.89365 24893 ft 448 kts 155°
2026-05-09 03:25 69.06818 19.93541 25336 ft 451 kts 155°
2026-05-09 03:25 69.04069 19.97860 25743 ft 455 kts 154°
2026-05-09 03:25 69.01327 20.02265 26270 ft 455 kts 154°
2026-05-09 03:25 68.98584 20.06706 26733 ft 457 kts 154°
2026-05-09 03:26 68.95825 20.11165 27082 ft 461 kts 154°
2026-05-09 03:26 68.93036 20.15649 27447 ft 464 kts 154°
2026-05-09 03:26 68.90231 20.20135 27820 ft 467 kts 154°
2026-05-09 03:26 68.87399 20.24639 28086 ft 472 kts 154°
2026-05-09 03:27 68.84527 20.29185 28390 ft 476 kts 154°
2026-05-09 03:27 68.81683 20.33673 28779 ft 478 kts 154°
2026-05-09 03:27 68.78791 20.38221 29157 ft 480 kts 155°
2026-05-09 03:27 68.75887 20.42783 29479 ft 482 kts 155°
2026-05-09 03:28 68.72964 20.47373 29832 ft 484 kts 155°
2026-05-09 03:28 68.70043 20.51963 30292 ft 483 kts 155°
2026-05-09 03:28 68.67131 20.56550 30737 ft 481 kts 155°
2026-05-09 03:28 68.64236 20.61118 31150 ft 480 kts 155°
2026-05-09 03:29 68.61338 20.65671 31511 ft 480 kts 155°
2026-05-09 03:29 68.58436 20.70150 31883 ft 478 kts 155°
2026-05-09 03:29 68.55550 20.74560 32429 ft 473 kts 155°
2026-05-09 03:29 68.52676 20.78939 32833 ft 473 kts 155°
2026-05-09 03:30 68.49798 20.83317 33113 ft 474 kts 155°
2026-05-09 03:30 68.46903 20.87712 33244 ft 479 kts 155°
2026-05-09 03:30 68.43993 20.92182 33493 ft 481 kts 155°
2026-05-09 03:30 68.41080 20.96619 33946 ft 478 kts 155°
2026-05-09 03:31 68.38177 21.00981 34385 ft 475 kts 156°
2026-05-09 03:31 68.35280 21.05305 34670 ft 475 kts 156°
2026-05-09 03:31 68.32379 21.09620 34869 ft 477 kts 155°
2026-05-09 03:31 68.29465 21.13949 35094 ft 478 kts 155°
2026-05-09 03:32 68.26554 21.18271 35369 ft 478 kts 155°
2026-05-09 03:32 68.23645 21.22585 35643 ft 477 kts 155°
2026-05-09 03:32 68.20736 21.26892 35883 ft 478 kts 155°
2026-05-09 03:32 68.17817 21.31200 36114 ft 478 kts 155°
2026-05-09 03:33 68.14901 21.35495 36343 ft 478 kts 155°
2026-05-09 03:33 68.12027 21.39716 36686 ft 476 kts 155°
2026-05-09 03:33 68.09120 21.43972 36880 ft 477 kts 155°
2026-05-09 03:33 68.06152 21.48301 36959 ft 481 kts 155°
2026-05-09 03:34 68.03246 21.52527 37174 ft 482 kts 155°
2026-05-09 03:34 68.00296 21.56807 37340 ft 483 kts 155°
2026-05-09 03:34 67.94371 21.65365 37305 ft 485 kts 155°
2026-05-09 03:35 67.88461 21.73858 37309 ft 479 kts 155°
2026-05-09 03:35 67.82608 21.82219 37310 ft 477 kts 155°
2026-05-09 03:36 67.76770 21.90505 37318 ft 475 kts 155°
2026-05-09 03:36 67.70922 21.98755 37290 ft 479 kts 155°
2026-05-09 03:37 67.64988 22.07075 37320 ft 487 kts 155°
2026-05-09 03:37 67.58978 22.15459 37307 ft 490 kts 155°
2026-05-09 03:38 67.52985 22.23778 37312 ft 491 kts 155°
2026-05-09 03:38 67.46938 22.32120 37310 ft 491 kts 155°
2026-05-09 03:39 67.40900 22.40403 37312 ft 490 kts 155°
2026-05-09 03:39 67.34853 22.48648 37309 ft 490 kts 155°
2026-05-09 03:40 67.28818 22.56828 37294 ft 489 kts 156°
2026-05-09 03:40 67.22788 22.64958 37293 ft 488 kts 156°
2026-05-09 03:41 67.16764 22.73034 37298 ft 488 kts 156°
2026-05-09 03:41 67.10741 22.81059 37301 ft 487 kts 156°
2026-05-09 03:42 67.04717 22.89040 37301 ft 487 kts 156°
2026-05-09 03:42 66.98690 22.96982 37312 ft 487 kts 156°
2026-05-09 03:43 66.92664 23.04879 37308 ft 487 kts 156°
2026-05-09 03:43 66.86629 23.12743 37324 ft 487 kts 156°
2026-05-09 03:44 66.80586 23.20574 37319 ft 487 kts 156°
2026-05-09 03:44 66.74583 23.28309 37323 ft 487 kts 156°
2026-05-09 03:45 66.68540 23.36053 37327 ft 487 kts 157°
2026-05-09 03:45 66.62489 23.43765 37319 ft 487 kts 157°
2026-05-09 03:46 66.56447 23.51423 37325 ft 486 kts 157°
2026-05-09 03:46 66.53417 23.55248 36945 ft 488 kts 157°
2026-05-09 03:46 66.50396 23.59054 36350 ft 484 kts 158°
2026-05-09 03:47 66.47385 23.62835 35661 ft 484 kts 158°
2026-05-09 03:47 66.44375 23.66603 34956 ft 484 kts 158°
2026-05-09 03:47 66.41353 23.70375 34177 ft 486 kts 159°
2026-05-09 03:47 66.38324 23.74143 33256 ft 487 kts 159°
2026-05-09 03:48 66.35293 23.77907 32491 ft 485 kts 159°
2026-05-09 03:48 66.32278 23.81642 31659 ft 485 kts 159°
2026-05-09 03:48 66.29254 23.85376 30819 ft 485 kts 159°
2026-05-09 03:48 66.26229 23.89100 29863 ft 486 kts 159°
2026-05-09 03:49 66.23200 23.92820 28841 ft 486 kts 158°
2026-05-09 03:49 66.20169 23.96534 27978 ft 484 kts 158°
2026-05-09 03:49 66.17181 24.00191 27297 ft 477 kts 158°
2026-05-09 03:49 66.14223 24.03803 26590 ft 471 kts 158°
2026-05-09 03:50 66.11336 24.07315 25917 ft 466 kts 158°
2026-05-09 03:50 66.08440 24.10827 25250 ft 462 kts 158°
2026-05-09 03:50 66.05574 24.14293 24587 ft 457 kts 158°
2026-05-09 03:50 66.02726 24.17726 23916 ft 454 kts 157°
2026-05-09 03:51 65.99903 24.21121 23127 ft 450 kts 157°
2026-05-09 03:51 65.97104 24.24481 22437 ft 445 kts 157°
2026-05-09 03:51 65.94344 24.27787 21764 ft 439 kts 157°
2026-05-09 03:51 65.91611 24.31052 21117 ft 434 kts 157°
2026-05-09 03:52 65.88910 24.34270 20460 ft 430 kts 157°
2026-05-09 03:52 65.86233 24.37453 19816 ft 425 kts 157°
2026-05-09 03:52 65.83585 24.40593 19175 ft 422 kts 157°
2026-05-09 03:52 65.80956 24.43703 18522 ft 418 kts 157°
2026-05-09 03:53 65.78353 24.46776 17815 ft 414 kts 157°
2026-05-09 03:53 65.75774 24.49816 17172 ft 409 kts 156°
2026-05-09 03:53 65.73227 24.52809 16533 ft 404 kts 156°
2026-05-09 03:53 65.70713 24.55759 15920 ft 400 kts 156°
2026-05-09 03:54 65.68220 24.58677 15305 ft 395 kts 156°
2026-05-09 03:54 65.65755 24.61555 14703 ft 391 kts 156°
2026-05-09 03:54 65.63311 24.64403 14102 ft 388 kts 156°
2026-05-09 03:54 65.60895 24.67213 13447 ft 384 kts 156°
2026-05-09 03:55 65.58504 24.69987 12867 ft 378 kts 156°
2026-05-09 03:55 65.56150 24.72715 12288 ft 373 kts 156°
2026-05-09 03:55 65.53850 24.75373 11712 ft 369 kts 156°
2026-05-09 03:55 65.51552 24.78024 11246 ft 361 kts 156°
2026-05-09 03:56 65.49334 24.80583 11107 ft 345 kts 156°
2026-05-09 03:56 65.47210 24.83027 10977 ft 331 kts 156°
2026-05-09 03:56 65.45171 24.85368 10842 ft 319 kts 156°
2026-05-09 03:56 65.43204 24.87623 10719 ft 307 kts 156°
2026-05-09 03:57 65.41306 24.89793 10597 ft 297 kts 157°
2026-05-09 03:57 65.39472 24.91886 10479 ft 287 kts 157°
2026-05-09 03:57 65.37699 24.93900 10339 ft 278 kts 158°
2026-05-09 03:57 65.35879 24.95388 9996 ft 275 kts 168°
2026-05-09 03:58 65.34021 24.96389 9645 ft 274 kts 171°
2026-05-09 03:58 65.32157 24.97318 9291 ft 273 kts 171°
2026-05-09 03:58 65.30925 24.97937 9060 ft 273 kts 171°
2026-05-09 03:58 65.29069 24.98887 8706 ft 273 kts 170°
2026-05-09 03:59 65.27216 24.99858 8355 ft 272 kts 170°
2026-05-09 03:59 65.25370 25.00839 8016 ft 272 kts 170°
2026-05-09 03:59 65.23525 25.01830 7664 ft 271 kts 170°
2026-05-09 03:59 65.21685 25.02822 7322 ft 271 kts 170°
2026-05-09 04:00 65.19846 25.03817 6972 ft 271 kts 170°
2026-05-09 04:00 65.18014 25.04810 6620 ft 270 kts 171°
2026-05-09 04:00 65.16180 25.05803 6254 ft 270 kts 171°
2026-05-09 04:00 65.14352 25.06793 5903 ft 269 kts 171°
2026-05-09 04:01 65.12529 25.07777 5514 ft 269 kts 171°
2026-05-09 04:01 65.10664 25.08765 4910 ft 277 kts 173°
2026-05-09 04:01 65.08780 25.08596 4461 ft 270 kts 200°
2026-05-09 04:01 65.07089 25.06745 4051 ft 267 kts 211°
2026-05-09 04:02 65.05493 25.04515 3576 ft 267 kts 212°
2026-05-09 04:02 65.03693 25.03222 3118 ft 275 kts 182°
2026-05-09 04:02 65.01873 25.04468 2896 ft 277 kts 152°
2026-05-09 04:02 65.00389 25.07324 2560 ft 273 kts 138°
2026-05-09 04:03 64.99256 25.10849 2216 ft 262 kts 126°
2026-05-09 04:03 64.98365 25.14395 1873 ft 241 kts 125°
2026-05-09 04:03 64.97552 25.17650 1592 ft 219 kts 126°
2026-05-09 04:03 64.96801 25.20597 1313 ft 201 kts 127°
2026-05-09 04:04 64.96110 25.23294 1060 ft 184 kts 127°
2026-05-09 04:04 64.95477 25.25772 818 ft 169 kts 127°
2026-05-09 04:04 64.94899 25.28029 638 ft 151 kts 127°
2026-05-09 04:04 64.94379 25.30074 441 ft 143 kts 125°
2026-05-09 04:05 64.93866 25.32062 216 ft 142 kts 123°
2026-05-09 04:05 64.93369 25.34044 64 ft 133 kts 123°
2026-05-09 04:05 64.92951 25.35661 51 ft 91 kts 121°
2026-05-09 04:05 64.92721 25.36527 49 ft 44 kts 122°
2026-05-09 04:06 64.92579 25.37107 46 ft 38 kts 120°
2026-05-09 04:06 64.92468 25.37597 45 ft 23 kts 96°
2026-05-09 04:06 64.92503 25.37883 49 ft 16 kts 46°
2026-05-09 04:06 64.92590 25.37832 48 ft 15 kts 302°
2026-05-09 04:07 64.92639 25.37626 49 ft 14 kts 300°
2026-05-09 04:07 64.92689 25.37460 47 ft 9 kts 306°
2026-05-09 04:07 64.92717 25.37379 49 ft 5 kts 342°
2026-05-09 04:07 64.92736 25.37399 49 ft 2 kts 28°
2026-05-09 04:08 64.92748 25.37415 49 ft 2 kts 29°
2026-05-09 04:08 64.92760 25.37430 47 ft 2 kts 31°
2026-05-09 04:08 64.92769 25.37444 46 ft 0 kts 31°
2026-05-09 04:08 64.92774 25.37450 47 ft 1 kts 29°
2026-05-09 04:09 64.92780 25.37458 48 ft 0 kts 29°
2026-05-09 04:09 64.92781 25.37459 48 ft 0 kts 29°